Regional Weather Roundup
Issued by NWS

Home | Current Version | Previous Version | Graphics & Text | Print | Product List | Glossary On
Versions: 1 2 3 4 5 6 7 8 9 10 11 12 13 14 15 16 17 18 19 20 21 22 23 24 25 26 27 28 29 30 31 32 33 34 35 36 37 38 39 40 41 42 43 44 45 46 47 48 49 50
000
ASUS45 KSLC 202110
RWRUT

UTAH REGIONAL WEATHER ROUNDUP
NATIONAL WEATHER SERVICE SALT LAKE CITY UT
300 PM MDT MON OCT 20 2014

UTZ001>011-023>025-202200-

NORTHERN UTAH

CITY           SKY/WX    TMP DP  RH WIND       PRES   REMARKS
BRIGHAM CITY   SUNNY     72  33  23 CALM      29.99F
HILL AFB       SUNNY     74  38  26 S7        30.00F
LOGAN          SUNNY     72  35  25 CALM      29.99F
OGDEN          SUNNY     75  37  25 CALM      29.98F
PROVO AIRPORT  MOSUNNY   73  39  29 CALM      30.00F
SALT LAKE CITY MOSUNNY   78  34  20 S13       29.95F
VERNAL         SUNNY     66  38  35 S3        30.10F
WENDOVER       SUNNY     64  37  36 E6        29.97F
HEBER CITY     SUNNY     73  32  21 SW7       30.04F
WEST JORDAN    SUNNY     75  46  35 SE12      30.00F

$$

UTZ012>022-026-027-202200-

SOUTHERN/CENTRAL UTAH

CITY           SKY/WX    TMP DP  RH WIND       PRES   REMARKS
BLANDING       SUNNY     68  38  32 E5        30.21F
BRYCE CANYON   SUNNY     61  38  42 SE13G21   30.20F
CEDAR CITY     MOSUNNY   73  38  27 SW12G23   30.04F
DELTA          SUNNY     75  34  22 S8        30.01F
HANKSVILLE       N/A     73  37  27 E5        30.07F
MILFORD        SUNNY     76  36  23 VRB6      30.00F
MOAB/CYNLANDS  SUNNY     75  38  26 W6        30.03F
PRICE          SUNNY     68  36  30 SE9       30.13F
ST GEORGE      CLEAR     84  43  23 W3        29.93F
KANAB            N/A     73  39  29 NE10G17   30.08F

$$

REGIONAL REPORTS     COLORADO/ARIZONA

CITY           SKY/WX    TMP DP  RH WIND       PRES   REMARKS
CRAIG, CO      PTSUNNY   71  36  27 W7        30.13F
GRAND JUNCTION MOSUNNY   71  42  35 NW7       30.08F
RIFLE          MOSUNNY   70  38  31 VRB3      30.11F
MONTROSE       MOSUNNY   73  35  25 N9        30.12F
CORTEZ         MOSUNNY   69  40  34 SE7       30.13F
PAGE, AZ       NOT AVBL
GRAND CANYON   PTSUNNY   64  39  39 NE9G18    30.15S
KINGMAN        SUNNY     80  44  27 W10       29.97F
FLAGSTAFF      PTSUNNY   62  38  40 VRB7      30.17S

$$

REGIONAL REPORTS    NEVADA/IDAHO/WYOMING

CITY           SKY/WX    TMP DP  RH WIND       PRES   REMARKS
LAS VEGAS, NV  MOSUNNY   85  41  21 E7        29.84F
ELY            SUNNY     71  30  21 S17G32    30.03F
ELKO           SUNNY     77  28  16 S20G28    29.91F
POCATELLO, ID  MOSUNNY   78  35  21 S17G26    29.94F
BURLEY         SUNNY     78  37  22 SW15      29.88F
EVANSTON, WY   MOSUNNY   68  30  24 SW17G23   30.12F
ROCK SPRINGS   SUNNY     67  29  24 NW9       30.12F
KEMMERER       MOSUNNY   63  28  27 SW10G17   30.14F

$$



USA.gov is the U.S. government's official web portal to all federal, state and local government web resources and services.